Weather History for Lakeville, MN

Change the Weather History Date:

Sunday, January 20, 2013

  Actual Average Record
Temperature  
Mean Temperature 2 °F -  
Max Temperature 8 °F 22 °F 44 °F (1964)
Min Temperature -4 °F 2 °F -29 °F (1984)
Degree Days  
Heating Degree Days 63    
Moisture  
Dew Point -6 °F    
Average Humidity 71    
Maximum Humidity 85    
Minimum Humidity 56    
Precipitation  
Precipitation 0.00 in - - ()
Sea Level Pressure  
Sea Level Pressure 30.29 in    
Wind  
Wind Speed 13 mph (WNW)    
Max Wind Speed 21 mph    
Max Gust Speed 28 mph    
Visibility 9 miles    
Events Snow    
Averages and records for this station are not official NWS values.
T = Trace of Precipitation, MM = Missing Value Source: NWS Daily Summary

Daily Weather History Graph

Daily Weather History Graph

Search for Another Location

Airport:

Trip Planner

Search our weather history database for the weather conditions in past years. The results will help you decide how hot, cold, wet, or windy it might be!

Date:

Astronomy

Jan. 20, 2013 Rise Set
Actual Time 7:42 AM CST 5:05 PM CST
Civil Twilight 7:10 AM CST 5:37 PM CST
Nautical Twilight 6:35 AM CST 6:13 PM CST
Astronomical Twilight 6:00 AM CST 6:48 PM CST
Moon 12:07 PM CST (1/20) 2:14 AM CST (1/20)
Length of Visible Light 10h 26m
Length of Day
9h 22m
Waxing Gibbous, 66% of the Moon is Illuminated
Jan 20
Waxing Gibbous
Jan 26
Full
Feb 3
Last Quarter
Feb 10
New
Feb 17
First Quarter

Hourly Weather History & Observations

Time (CST) Temp. Windchill Dew Point Humidity Pressure Visibility Wind Dir Wind Speed Gust Speed Precip Events Conditions
12:09 AM 1.4 °F -16.1 °F -4.0 °F 78% 30.23 in 7.0 mi West 12.7 mph 20.7 mph N/A   Clear
12:28 AM 1.4 °F -16.9 °F -4.0 °F 78% 30.23 in 5.0 mi WNW 13.8 mph 21.9 mph N/A   Haze
12:49 AM -0.4 °F -20.5 °F -4.0 °F 85% 30.23 in 7.0 mi WNW 16.1 mph - N/A   Clear
1:09 AM -0.4 °F -17.6 °F -4.0 °F 85% 30.24 in 7.0 mi West 11.5 mph - N/A   Clear
1:29 AM -0.4 °F -19.2 °F -5.8 °F 78% 30.24 in 10.0 mi WNW 13.8 mph - N/A   Clear
2:09 AM -0.4 °F -20.5 °F -5.8 °F 78% 30.26 in 10.0 mi WNW 16.1 mph - N/A   Clear
2:28 AM -0.4 °F -19.9 °F -5.8 °F 78% 30.27 in 10.0 mi WNW 15.0 mph 20.7 mph N/A   Clear
2:49 AM -0.4 °F -19.2 °F -5.8 °F 78% 30.28 in 10.0 mi WNW 13.8 mph - N/A   Clear
3:09 AM -0.4 °F -19.9 °F -5.8 °F 78% 30.29 in 10.0 mi West 15.0 mph - N/A   Clear
3:28 AM -0.4 °F -19.9 °F -7.6 °F 72% 30.29 in 10.0 mi WNW 15.0 mph - N/A   Clear
3:49 AM -0.4 °F -19.9 °F -7.6 °F 72% 30.31 in 10.0 mi WNW 15.0 mph - N/A   Clear
4:09 AM -0.4 °F -20.5 °F -7.6 °F 72% 30.31 in 10.0 mi WNW 16.1 mph - N/A   Clear
4:29 AM -0.4 °F -19.2 °F -7.6 °F 72% 30.30 in 10.0 mi WNW 13.8 mph - N/A   Clear
4:49 AM -0.4 °F -18.4 °F -7.6 °F 72% 30.29 in 10.0 mi WNW 12.7 mph - N/A   Clear
5:09 AM -0.4 °F -16.7 °F -7.6 °F 72% 30.29 in 10.0 mi WNW 10.4 mph - N/A   Clear
5:29 AM -2.2 °F -20.7 °F -7.6 °F 78% 30.30 in 10.0 mi WNW 12.7 mph - N/A   Clear
5:49 AM -2.2 °F -15.6 °F -7.6 °F 78% 30.30 in 10.0 mi WNW 6.9 mph - N/A   Clear
6:08 AM -0.4 °F -16.7 °F -7.6 °F 72% 30.32 in 10.0 mi WNW 10.4 mph - N/A   Clear
6:29 AM -0.4 °F -15.7 °F -7.6 °F 72% 30.31 in 10.0 mi West 9.2 mph - N/A   Clear
6:49 AM -0.4 °F -14.7 °F -7.6 °F 72% 30.31 in 10.0 mi West 8.1 mph - N/A   Clear
7:08 AM -0.4 °F -14.7 °F -7.6 °F 72% 30.32 in 10.0 mi WNW 8.1 mph - N/A   Clear
7:29 AM -0.4 °F -14.7 °F -7.6 °F 72% 30.31 in 10.0 mi WNW 8.1 mph - N/A   Clear
7:49 AM -0.4 °F -16.7 °F -7.6 °F 72% 30.31 in 10.0 mi WNW 10.4 mph - N/A   Clear
8:08 AM -0.4 °F -14.7 °F -7.6 °F 72% 30.32 in 10.0 mi WNW 8.1 mph - N/A   Clear
8:29 AM -0.4 °F -15.7 °F -7.6 °F 72% 30.33 in 10.0 mi WNW 9.2 mph - N/A   Clear
8:49 AM -0.4 °F -16.7 °F -7.6 °F 72% 30.34 in 10.0 mi West 10.4 mph - N/A   Clear
9:08 AM -0.4 °F -17.6 °F -5.8 °F 78% 30.35 in 10.0 mi West 11.5 mph - N/A   Clear
9:29 AM -0.4 °F -16.7 °F -5.8 °F 78% 30.35 in 10.0 mi WNW 10.4 mph - N/A   Clear
9:49 AM -0.4 °F -16.7 °F -5.8 °F 78% 30.36 in 10.0 mi WNW 10.4 mph - N/A   Clear
10:08 AM 1.4 °F -15.3 °F -5.8 °F 72% 30.37 in 10.0 mi WNW 11.5 mph - N/A   Clear
10:29 AM 1.4 °F -16.9 °F -5.8 °F 72% 30.38 in 10.0 mi West 13.8 mph - N/A   Clear
10:49 AM 1.4 °F -15.3 °F -5.8 °F 72% 30.38 in 10.0 mi WNW 11.5 mph - N/A   Clear
11:08 AM 3.2 °F -13.1 °F -5.8 °F 66% 30.38 in 10.0 mi West 11.5 mph - N/A   Clear
11:29 AM 3.2 °F -12.2 °F -5.8 °F 66% 30.37 in 10.0 mi West 10.4 mph 16.1 mph N/A   Clear
11:49 AM 3.2 °F -13.1 °F -5.8 °F 66% 30.35 in 10.0 mi West 11.5 mph - N/A   Clear
12:09 PM 3.2 °F -13.9 °F -5.8 °F 66% 30.35 in 10.0 mi WNW 12.7 mph - N/A   Scattered Clouds
12:29 PM 5.0 °F -10.8 °F -5.8 °F 61% 30.33 in 10.0 mi West 11.5 mph - N/A   Scattered Clouds
12:49 PM 6.8 °F -9.3 °F -4.0 °F 61% 30.33 in 10.0 mi West 12.7 mph - N/A   Scattered Clouds
1:09 PM 6.8 °F -11.3 °F -5.8 °F 56% 30.32 in 10.0 mi WNW 16.1 mph 20.7 mph N/A   Scattered Clouds
1:29 PM 6.8 °F -12.4 °F -4.0 °F 61% 30.32 in 10.0 mi WNW 18.4 mph - N/A   Clear
1:49 PM 6.8 °F -8.6 °F -4.0 °F 61% 30.31 in 10.0 mi WNW 11.5 mph - N/A   Clear
2:09 PM 6.8 °F -9.3 °F -4.0 °F 61% 30.30 in 10.0 mi West 12.7 mph 19.6 mph N/A   Clear
2:29 PM 8.6 °F -7.7 °F -2.2 °F 62% 30.30 in 10.0 mi WNW 13.8 mph 18.4 mph N/A   Scattered Clouds
2:49 PM 6.8 °F -8.6 °F -4.0 °F 61% 30.29 in 10.0 mi WNW 11.5 mph 18.4 mph N/A   Mostly Cloudy
3:09 PM 8.6 °F -5.5 °F -2.2 °F 62% 30.29 in 10.0 mi West 10.4 mph 17.3 mph N/A   Mostly Cloudy
3:29 PM 6.8 °F -9.3 °F -2.2 °F 67% 30.29 in 10.0 mi West 12.7 mph 18.4 mph N/A   Overcast
3:49 PM 6.8 °F -9.3 °F -2.2 °F 67% 30.28 in 10.0 mi West 12.7 mph 17.3 mph N/A   Overcast
4:09 PM 6.8 °F -10.0 °F -2.2 °F 67% 30.28 in 10.0 mi West 13.8 mph 21.9 mph N/A   Overcast
4:29 PM 6.8 °F -11.3 °F -2.2 °F 67% 30.28 in 10.0 mi West 16.1 mph 23.0 mph N/A   Overcast
4:49 PM 5.0 °F -14.2 °F -2.2 °F 72% 30.28 in 10.0 mi West 17.3 mph - N/A   Overcast
5:09 PM 5.0 °F -12.3 °F -2.2 °F 72% 30.28 in 10.0 mi West 13.8 mph - N/A   Overcast
5:28 PM 5.0 °F -10.8 °F -2.2 °F 72% 30.27 in 10.0 mi West 11.5 mph 19.6 mph N/A   Mostly Cloudy
5:49 PM 5.0 °F -12.3 °F -2.2 °F 72% 30.27 in 10.0 mi West 13.8 mph 19.6 mph N/A   Overcast
6:09 PM 5.0 °F -10.0 °F -0.4 °F 78% 30.27 in 7.0 mi West 10.4 mph - N/A   Overcast
6:29 PM 3.2 °F -10.3 °F -0.4 °F 85% 30.26 in 5.0 mi West 8.1 mph - N/A   Scattered Clouds
6:49 PM 3.2 °F -9.1 °F -0.4 °F 85% 30.26 in 5.0 mi West 6.9 mph - N/A   Scattered Clouds
7:09 PM 3.2 °F -12.2 °F -0.4 °F 85% 30.25 in 4.0 mi WNW 10.4 mph - N/A   Scattered Clouds
7:29 PM 5.0 °F -15.2 °F -0.4 °F 78% 30.25 in 1.5 mi WNW 19.6 mph - N/A Snow Light Snow
7:49 PM 3.2 °F -17.1 °F -4.0 °F 72% 30.25 in 10.0 mi WNW 18.4 mph - N/A   Scattered Clouds
8:09 PM 1.4 °F -18.8 °F -7.6 °F 66% 30.25 in 10.0 mi WNW 17.3 mph 27.6 mph N/A   Clear
8:29 PM 1.4 °F -20.5 °F -7.6 °F 66% 30.24 in 10.0 mi WNW 20.7 mph 24.2 mph N/A   Clear
8:49 PM -0.4 °F -22.3 °F -7.6 °F 72% 30.23 in 10.0 mi WNW 19.6 mph - N/A   Clear
9:09 PM -0.4 °F -19.9 °F -7.6 °F 72% 30.24 in 10.0 mi WNW 15.0 mph - N/A   Clear
9:29 PM -0.4 °F -22.3 °F -7.6 °F 72% 30.24 in 10.0 mi WNW 19.6 mph 25.3 mph N/A   Clear
9:49 PM -0.4 °F -21.7 °F -9.4 °F 66% 30.24 in 10.0 mi WNW 18.4 mph 25.3 mph N/A   Clear
10:09 PM -0.4 °F -19.9 °F -9.4 °F 66% 30.26 in 10.0 mi WNW 15.0 mph 24.2 mph N/A   Clear
10:29 PM -2.2 °F -23.5 °F -9.4 °F 71% 30.26 in 10.0 mi WNW 17.3 mph 21.9 mph N/A   Clear
10:49 PM -2.2 °F -22.9 °F -11.2 °F 66% 30.26 in 10.0 mi WNW 16.1 mph 26.5 mph N/A   Clear
11:09 PM -2.2 °F -23.5 °F -11.2 °F 66% 30.26 in 10.0 mi NW 17.3 mph 21.9 mph N/A   Clear
11:29 PM -4.0 °F -24.5 °F -11.2 °F 71% 30.26 in 10.0 mi WNW 15.0 mph 18.4 mph N/A   Clear
11:49 PM -4.0 °F -23.7 °F -11.2 °F 71% 30.26 in 10.0 mi WNW 13.8 mph - N/A   Clear